FO-29
1 24278U 96046B 14050.88071880 .00000017 00000-0 55518-4 0 3123
2 24278 098.5221 080.8901 0349797 241.8807 246.2371 13.53015483864801
SO-33
1 25509U 98061B 14051.51887247 .00000410 00000-0 67752-4 0 6946
2 25509 031.4336 101.3486 0350477 172.3850 331.2593 14.29312759800443
RS-22
1 27939U 03042A 14051.71949829 .00001586 00000-0 30464-3 0 2408
2 27939 097.8008 231.7103 0013964 116.3080 243.9566 14.64899621555676
VO-52
1 28650U 05017B 14050.85926674 .00002030 00000-0 24385-3 0 6640
2 28650 097.5624 061.7361 0025693 181.2303 178.8853 14.84795139475819
HO-68
1 36122U 09072B 14051.74416876 -.00000043 00000-0 00000 0 0 3425
2 36122 100.2685 107.0967 0007749 144.4899 215.6729 13.16311926201114
AO-73
1 39444U 13066AE 14051.23913148 .00002556 00000-0 35407-3 0 690
2 39444 097.7876 125.8622 0061888 262.7787 096.6425 14.77552356 12196
UO-11
1 14781U 84021B 14051.72654140 .00000907 00000-0 12281-3 0 4219
2 14781 097.8676 114.0526 0008840 191.3604 168.7410 14.81316710610724
AO-16
1 20439U 90005D 14051.78865841 .00000196 00000-0 88592-4 0 9600
2 20439 098.4980 351.3778 0011827 139.8129 272.6512 14.32286162257828
LO-19
1 20442U 90005G 14051.78091710 .00000187 00000-0 84571-4 0 8983
2 20442 098.4685 352.3789 0012925 130.4157 229.8156 14.32491538258021
AO-27
1 22825U 93061C 14051.80646140 .00000169 00000-0 83071-4 0 6017
2 22825 098.6500 358.5893 0007271 279.2270 141.2228 14.29659645 64153
IO-26
1 22826U 93061D 14050.90462118 .00000202 00000-0 95574-4 0 3587
2 22826 098.6440 357.9332 0007798 273.9457 086.0834 14.29952811 64150
GO-32
1 25397U 98043D 14050.97920383 .00000106 00000-0 65101-4 0 2819
2 25397 098.4535 013.4362 0000262 006.3452 035.4068 14.23405131811191
NO-44
1 26931U 01043C 14050.20189978 .00000136 00000-0 84674-4 0 5396
2 26931 067.0540 342.6873 0005522 271.3541 088.6927 14.30043569646736
SO-50
1 27607U 02058C 14051.85613968 .00001132 00000-0 19331-3 0 3096
2 27607 064.5559 226.8803 0035257 053.6735 054.6481 14.73427695600347
CO-55
1 27844U 03031E 14050.87386929 .00000357 00000-0 18349-3 0 8604
2 27844 098.7006 061.3350 0008747 250.6856 229.2295 14.21392595551916
CO-57
1 27848U 03031J 14051.62769264 .00000304 00000-0 16019-3 0 8029
2 27848 098.7096 061.7248 0008643 255.1795 223.8156 14.21096484551943
AO-51
1 28375U 04025K 14051.10698214 .00000434 00000-0 14200-3 0 7762
2 28375 098.2374 002.0928 0082700 347.1829 075.6517 14.41281586507049
CP3
1 31129U 07012N 14050.53994466 .00001957 00000-0 44258-3 0 6784
2 31129 097.9230 034.5877 0099508 018.2829 097.4021 14.54254212362939
CO-65
1 32785U 08021C 14051.12629959 .00002255 00000-0 27199-3 0 8736
2 32785 097.7160 106.2092 0013590 208.3955 204.2971 14.84715299314651
PRISM
1 33493U 09002B 14051.88069592 .00007831 00000-0 85614-3 0 6613
2 33493 098.2399 222.7428 0018649 103.6706 256.6606 14.88012716274879
SOHLA-1
1 33496U 09002E 14051.85866522 .00000702 00000-0 12384-3 0 2790
2 33496 098.1544 172.6264 0005463 244.8589 227.5328 14.70598001272414
TISAT-1
1 36799U 10035E 14051.80502526 .00004942 00000-0 58944-3 0 9264
2 36799 098.0192 143.0018 0013360 345.4219 014.6573 14.84676019195448
STUDSAT
1 36801U 10035G 14051.90002720 .00016706 00000-0 16131-2 0 7743
2 36801 098.0338 149.0930 0009579 314.9833 182.0878 14.92885750195758
ALMASAT-1
1 38078U 12006B 14051.88325300 .00036327 00000-0 80743-3 0 9395
2 38078 069.4743 337.8105 0637138 185.7882 237.4456 14.39567039104839
XATCOBEO
1 38082U 12006F 14051.81273615 .00180541 93191-5 22696-2 0 9662
2 38082 069.4544 272.4995 0392531 150.4575 340.5984 15.02398473106601
CUBEBUG-1
1 39153U 13018D 14051.87420893 .00002307 00000-0 33259-3 0 8723
2 39153 098.0496 132.4103 0018538 007.9350 352.2147 14.77171966 44384
ESTCUBE-1
1 39161U 13021C 14051.88068099 .00001984 00000-0 34213-3 0 8432
2 39161 098.1043 133.6268 0010818 053.5541 306.6619 14.69571046 42513
NOAA-10
1 16969U 86073A 14051.57515873 .00000134 00000-0 71875-4 0 6770
2 16969 098.5238 078.7033 0011543 232.9183 238.6027 14.27718195427385
NOAA-11
1 19531U 88089A 14051.34610744 .00000057 00000-0 51452-4 0 7005
2 19531 098.6887 133.3012 0010147 270.9181 089.0830 14.15057462311212
NOAA-12
1 21263U 91032A 14051.51824564 .00000094 00000-0 58100-4 0 1741
2 21263 098.6756 079.6465 0013477 213.1360 305.0709 14.25627460183937
MET-3/5
1 21655U 91056A 14051.13130453 -.00000267 00000-0 -72426-3 0 9071
2 21655 082.5526 079.1280 0012600 225.2162 134.7936 13.17055637 82578
MET-2/21
1 22782U 93055A 14051.15979530 .00000077 00000-0 56559-4 0 9823
2 22782 082.5464 266.1587 0021496 231.1021 263.6080 13.83724670 33933
OKEAN-4
1 23317U 94066A 14051.88769066 .00002040 00000-0 23478-3 0 4620
2 23317 082.5405 176.9297 0022138 123.3474 357.4923 14.85120238 45841
NOAA-14
1 23455U 94089A 14051.31573192 .00000001 00000-0 23598-4 0 6552
2 23455 098.7835 136.8047 0009456 019.1815 049.6854 14.13950415987439
NOAA-15
1 25338U 98030A 14051.52901000 .00000226 00000-0 11465-3 0 855
2 25338 098.7463 045.6602 0011708 124.9552 343.5317 14.25346958820225
RESURS
1 25394U 98043A 14050.84199991 .00000072 00000-0 48978-4 0 5925
2 25394 098.3981 020.2479 0000791 186.0268 228.9829 14.24368514811610
FENGYUN1
1 25730U 99025A 14051.88824119 .00002629 00000-0 14708-2 0 840
2 25730 098.9039 013.7883 0028653 074.2912 344.0101 14.11399805761116
OKEAN-0
1 25860U 99039A 14050.95967600 .00000968 00000-0 15151-3 0 1792
2 25860 098.0279 015.6424 0002066 095.8816 305.2435 14.74982904784875
NOAA-16
1 26536U 00055A 14051.25937318 .00000083 00000-0 68875-4 0 5727
2 26536 099.0058 111.0346 0011323 152.6316 276.8408 14.12991019691609
NOAA-17
1 27453U 02032A 14051.50200642 .00000193 00000-0 10052-3 0 4773
2 27453 098.3126 057.3747 0012509 152.7586 358.7457 14.24688334606077
NOAA-18
1 28654U 05018A 14051.54419066 .00000206 00000-0 13781-3 0 9604
2 28654 099.1357 028.7839 0013645 228.6397 239.5103 14.11949765451105
NOAA-19
1 33591U 09005A 14051.48206660 .00000346 00000-0 21448-3 0 1311
2 33591 098.9334 356.9452 0015193 089.4622 044.4826 14.11642103259527
HUBBLE
1 20580U 90037B 14051.49791012 .00003190 00000-0 20907-3 0 4425
2 20580 028.4707 083.8817 0003428 117.8531 359.3045 15.04712062107121
ISS
1 25544U 98067A 14051.89942882 .00019211 00000-0 33687-3 0 7207
2 25544 051.6510 316.0550 0004014 159.4099 292.3514 15.50572403873282
CO-58
1 28895U 05043F 14051.36378757 .00000997 00000-0 20927-3 0 7009
2 28895 097.8452 259.2442 0017733 023.7410 336.4607 14.61578678443187
FALCON
1 30776U 07006E 14051.63269257 .00010325 00000-0 56017-3 0 8067
2 30776 035.4296 114.2696 0001339 255.5698 236.5131 15.13866613383048
MAST
1 31126U 07012K 14051.85938994 .00001326 00000-0 30108-3 0 9783
2 31126 097.9038 038.9056 0092224 358.1826 063.5869 14.54991361363477
CAPE1
1 31130U 07012P 14051.86609896 .00002075 00000-0 47045-3 0 9831
2 31130 097.9239 035.4331 0099944 015.3657 345.0537 14.54043064362908
COMPASS
1 32787U 08021E 14051.79263400 .00003947 00000-0 44692-3 0 8620
2 32787 097.7176 108.6297 0013991 200.4970 159.5686 14.86907098314880
AAUSAT2
1 32788U 08021F 14051.10913548 .00004400 00000-0 49031-3 0 8460
2 32788 097.7189 108.8192 0013469 200.9325 159.1341 14.87501407314834
DO-64
1 32789U 08021G 14051.83151332 .00008807 00000-0 88713-3 0 8843
2 32789 097.7353 114.9855 0013040 188.6343 222.5352 14.91323880315143
CO-66
1 32791U 08021J 14051.11197509 .00002680 00000-0 31397-3 0 8426
2 32791 097.7174 106.9607 0014366 205.3736 154.6775 14.85764693314662
